Regional Weather Roundup
Issued by NWS

Home | Current Version | Previous Version | Graphics & Text | Print | Product List | Glossary On
Versions: 1 2 3 4 5 6 7 8 9 10 11 12 13 14 15 16 17 18 19 20 21 22 23 24 25 26 27 28 29 30 31 32 33 34 35 36 37 38 39 40 41 42 43 44 45 46 47 48 49 50
000
ASUS45 KBOU 222010
RWRCO

WEATHER ROUNDUP FOR COLORADO
NATIONAL WEATHER SERVICE DENVER/BOULDER CO
100 PM MST WED NOV 22 2017

NOTE: "FAIR" INDICATES FEW OR NO CLOUDS BELOW 12000 FEET WITH NO
SIGNIFICANT WEATHER AND/OR OBSTRUCTIONS TO VISIBILITY.

COZ001>005-013-030-031-222100-
...NORTHWEST COLORADO...

CITY           SKY/WX    TMP DP  RH WIND       PRES   REMARKS
CRAIG          PTSUNNY   52  36  54 NE7       30.43F
HAYDEN         CLOUDY    46  36  68 E7        30.45F
MEEKER         FAIR      50  37  61 CALM      30.44F
RABBIT EARS PA FOG      N/A N/A N/A W8G17     30.53F VSB 1/4
STEAMBOAT SPGS CLOUDY    38  35  89 CALM      30.45F
WALDEN         CLOUDY    50  36  57 SW9       30.45F
$$

COZ006>008-011-222100-
...WEST CENTRAL VALLEYS...

CITY           SKY/WX    TMP DP  RH WIND       PRES   REMARKS
GRAND JUNCTION FAIR      57  33  40 VRB5      30.41F
MONTROSE       FAIR      55  32  41 VRB3      30.45F
EAGLE          CLOUDY    45  31  58 CALM      30.51F
RIFLE          PTSUNNY   50  34  54 CALM      30.45F
DELTA          FAIR      58  30  34 CALM      30.43F
NUCLA          FAIR      55  28  35 NW5       30.45F
$$

COZ017>023-064>068-222100-
...SOUTHWEST COLORADO...

CITY           SKY/WX    TMP DP  RH WIND       PRES   REMARKS
DURANGO        FAIR      55  23  28 VRB5      30.37F
CORTEZ         FAIR      60  31  33 SW12      30.36F
PAGOSA SPRINGS FAIR      55  20  25 CALM      30.40F
TELLURIDE      FAIR      54  30  40 CALM      30.51S
WOLF CREEK PAS FAIR      41  23  48 NW7       30.62F
$$

COZ009-010-012-014-032>034-037-058>063-222100-
...CENTRAL COLORADO...

CITY           SKY/WX    TMP DP  RH WIND       PRES   REMARKS
ASPEN          CLOUDY    45  31  58 N8        30.49F
BUENA VISTA    FAIR      54  31  41 NW29G35   30.39F
COPPER MTN     FOG       34  32  93 MISG      30.59F VSB<1/4
BERTHOUD PASS  CLOUDY    27  16  63 NW32G40   30.55F WCI  10
COTTONWOOD PAS FAIR      52  32  46 W17G24    30.47F
GUNNISON       FAIR      44  28  53 CALM      30.47F
KREMMLING      DRIZZLE   45  36  70 CALM      30.49F
LEADVILLE      CLOUDY    38  29  70 NW13      30.52S
MONARCH PASS   FAIR      34  28  80 W14       30.68S WCI  24
SALIDA         FAIR      58  29  33 CALM      30.45F
SUNLIGHT       CLOUDY    34  32  93 NW3       30.63F
WILKERSON PASS FAIR      41  28  60 NW5       30.54R
$$

COZ069>075-222100-
...SAN LUIS VALLEY/SANGRE DE CRISTO MOUNTAINS...

CITY           SKY/WX    TMP DP  RH WIND       PRES   REMARKS
ALAMOSA        FAIR      55  25  31 VRB3      30.39F
DEL NORTE      FAIR      54  25  32 SE7       30.40F
LA VETA PASS   FAIR      41  27  56 SW13        N/A
SAGUACHE       FAIR      55  30  38 N15G24    30.40F
$$

COZ035-036-038>040-222100-
...NORTHERN COLORADO FRONT RANGE...

CITY           SKY/WX    TMP DP  RH WIND       PRES   REMARKS
DENVER INTL AP PTSUNNY   68  32  26 W7        30.21F
DMNS CITY PARK   N/A     68  31  25 N9        30.20F
AURORA         PTSUNNY   67  33  28 NW6       30.23F
FRONT RANGE AP PTSUNNY   68  32  26 NW9       30.24F
ERIE MUNI ARPT FAIR      69  33  25 NW5       30.25F
BOULDER MUN AP FAIR      70  32  24 W16G22    30.21S
CENTENNIAL     PTSUNNY   66  34  30 N7        30.24F
BROOMFIELD     NOT AVBL
FORT COLLINS   FAIR      66  39  37 SE7       30.20F
LONGMONT       FAIR      70  34  26 SW5       30.21F
$$

COZ041-046-047-076>085-087-088-222100-
...PIKES PEAK/PALMER DIVIDE AND SOUTHERN FOOTHILLS...

CITY           SKY/WX    TMP DP  RH WIND       PRES   REMARKS
COLO. SPRINGS  PTSUNNY   66  25  21 SE7       30.27F
A. F. ACADEMY  FAIR      64  24  22 S5        30.27F
SCHRIEVER AFB  FAIR      64  22  20 SW6       30.27F
CHEYENNE MTN   FAIR      58  22  24 CALM      30.25F
ELLICOTT         N/A    N/A N/A N/A N7        30.26F
FALCON         FAIR      64  28  25 NW8       30.30F
FORT CARSON    FAIR      65  24  21 CALM      30.25F
LIMON          FAIR      66  29  24 NW9       30.23S
MONUMENT HILL  FAIR      61  32  33 NW9       30.32S
CANON CITY     FAIR      72  32  23 E6        30.22S
WALSENBURG     FAIR      68  28  22 W10       30.26S
TRINIDAD       FAIR      65  22  19 MISG      30.25F
$$

COZ042>045-048>051-090-091-222100-
...NORTHEAST COLORADO...

CITY           SKY/WX    TMP DP  RH WIND       PRES   REMARKS
GREELEY ARPT   FAIR      66  36  32 W9        30.19F
AKRON          FAIR      64  32  30 W17       30.18F
BURLINGTON     FAIR      70  33  25 NW17G24   30.17F
WRAY           NOT AVBL
YUMA           FAIR      64  36  34 NW16G23   30.15F
STERLING       FAIR      72  37  28 N18       30.13F
HOLYOKE        FAIR      73  39  29 NW14G23   30.12F
FORT MORGAN    FAIR      67  30  25 W13       30.19S
$$

COZ086-089-092>099-222100-
...SOUTHEAST COLORADO...

CITY           SKY/WX    TMP DP  RH WIND       PRES   REMARKS
PUEBLO         FAIR      64  29  26 E3        30.21F
LA JUNTA       FAIR      63  33  32 SW3       30.20F
LAMAR          FAIR      64  32  30 NW9       30.18F
SPRINGFIELD      N/A     67  28  23 N7        30.21F
$$



USA.gov is the U.S. government's official web portal to all federal, state and local government web resources and services.